SL-14 DEB, 45293

Orbit data source: Space-Track

SL-14 DEB, 45293 is space debris in LEO originally from a launch on Thu, 15 Aug 1991 UTC launched from the Plesetsk Missile And Space Complex (PKMTR). Debris objects in space refer to the collection of defunct objects orbiting the Earth. Examples of debris include non-operational satellites, rocket bodies, and fragments generated from explosions, collisions, or faulty payload assembly.

Loading next visibility...
Identifier
45293, 1991-056AF
Orbit
LEO
Country
Flag of CISCIS
Related business
Manufacturer
Unknown
Mission
Spacecraft
Bus & Motor
Unknown
Mass
Unknown
Launch date (UTC)
1991-08-15 (35 years ago)
Launch vehicle
Unknown
Launch site
Plesetsk Missile And Space Complex (PKMTR)
Object type
Payload
Rocket body
Debris
Shape & HBR
Unknown shape, 0.1 m
Radar Cross Section
Small (<0.1 m²)

Expand to show TLE details & history
Last TLE update: 2 days ago

TLE from 2 days ago
0 SL-14 DEB
1 45293U 91056AF  26171.34948359  .00067338  00000-0  14695-1 0  9999
2 45293  82.5064 295.0788 0084349  96.5229 264.5582 14.55262037319785
Epoch: 2026-06-20T08:23Z
TLE epoch observation values (Epoch: 2026-06-20T08:23:15.382Z)
Latitude
-0.00003°
Longitude
-99.30068°
Altitude
717.683 km
Speed
7.493 km/s
True Right ascension
19h 40m 18s
True Declination
0° 00' 00"
Sunlit
Object was in full shadow at epoch
Visualization orbit readout
Latitude
Unknown
Longitude
Unknown
Altitude
Unknown
Speed
Unknown
Apparent Right ascension
Unknown
Apparent Declination
Unknown
Sunlit
N/A
Visualization observer readout
Local Sidereal Time
23:19:26
Azimuth
Unknown
Elevation
Unknown
Doppler factor
Unknown
Orbital elements
Apogee altitude
765.32 km
Perigee altitude
645.82 km
Semi-major axis
7,083.707 km
Eccentricity
0.00843
Inclination
82.5064°
RAAN
295.0788°
Arg. of periapsis
96.5229°
True anomaly
263.59699°
Mean anomaly
264.5582°
Eccentric anomaly
264.0775°
Mean motion
3.64043 °/min
Orbital period
98.89 mins
BSTAR
0.014695
Loading maneuver chart data...
Computing Atmospheric mass density...
Loading historical data...
Loading historical data...
Loading historical data...
Loading historical data...
Loading historical data...
Loading historical data...
Loading historical data...

Documentation

Showing up to 5 results
|